Date String (YYYY-MM-DD hh:mm:ss) UTC,Instrument flags,Ambient pressure (hPa),Sample flow (lpm),Bypass flow (lpm),Sample temperature (°C),Ambient temperature (°C),ASC tube jacket temperature (°C),LED temperature (°C),Box temperature (°C),Sample RH (%),Span deviation,Mass concentration (μg/m³),Mass concentration (μg/m³),Mass concentration (μg/m³)
DateTimeUTC,F1_M11,P_M11,Q1_M11,Q2_M11,T1_M11,T2_M11,T3_M11,T4_M11,T5_M11,U1_M11,ZSPAN_M11,X0_M11,X2_M11,X1_M11
2021-09-09 20:00:00,,0829.6,4.99,0.00,28.9,25.6,00.0,38.0,30.3,14.5,0000.6,0037.93,0021.84,0019.83
2021-09-09 20:01:00,,0830.0,5.00,0.00,28.9,26.1,00.0,38.0,30.4,14.6,0000.5,0037.47,0021.77,0019.80
2021-09-09 20:02:00,,0829.6,4.99,0.00,28.9,26.5,00.0,38.0,30.5,14.5,0000.8,0038.03,0021.76,0019.78
2021-09-09 20:03:00,,0829.8,5.01,0.00,28.9,27.0,00.0,37.9,30.6,14.6,0000.8,0038.18,0021.73,0019.76
2021-09-09 20:04:00,,0829.6,4.98,0.00,28.9,27.4,00.0,37.9,30.8,14.7,0000.7,0038.14,0021.76,0019.79
2021-09-09 20:05:00,,0829.8,5.00,0.00,29.0,27.7,00.0,38.0,30.9,14.5,0000.8,0039.28,0021.82,0019.82
2021-09-09 20:06:00,,0829.8,5.01,0.00,29.1,28.0,00.0,38.0,31.0,14.3,0001.1,0040.35,0021.87,0019.85
2021-09-09 20:07:00,,0829.7,4.99,0.00,29.1,28.0,00.0,38.0,31.0,14.4,0001.8,0040.15,0021.90,0019.90
2021-09-09 20:08:00,,0829.6,5.01,0.00,29.1,26.6,00.0,38.0,30.6,14.3,0001.9,0039.34,0021.90,0019.92
2021-09-09 20:09:00,,0829.6,5.00,0.00,28.9,25.8,00.0,38.0,30.3,13.7,0001.7,0039.46,0021.91,0019.97
2021-09-09 20:10:00,,0829.6,5.00,0.00,28.9,26.2,00.0,38.0,30.4,13.6,0001.4,0039.84,0021.95,0020.03
2021-09-09 20:11:00,,0829.6,5.00,0.00,28.9,26.6,00.0,38.0,30.5,13.5,0001.2,0039.43,0022.02,0020.08
2021-09-09 20:12:00,,0829.6,5.00,0.00,28.9,27.0,00.0,38.0,30.7,13.5,0001.4,0039.49,0022.07,0020.11
2021-09-09 20:13:00,,0829.5,4.99,0.00,29.0,27.4,00.0,38.0,30.8,13.3,0001.6,0039.05,0022.10,0020.14
2021-09-09 20:14:00,,0829.6,5.01,0.00,29.0,27.8,00.0,38.0,30.9,13.2,0002.1,0039.18,0022.14,0020.18
2021-09-09 20:15:00,,0829.5,5.00,0.00,29.1,27.8,00.0,38.0,31.0,13.6,0002.5,0039.31,0022.18,0020.19
2021-09-09 20:16:00,,0829.6,4.99,0.00,29.1,26.5,00.0,38.0,30.6,13.7,0002.5,0039.32,0022.16,0020.19
2021-09-09 20:17:00,,0829.6,5.00,0.00,28.9,25.8,00.0,38.0,30.4,13.7,0002.3,0039.43,0022.15,0020.18
2021-09-09 20:18:00,,0829.6,5.00,0.00,28.9,26.2,00.0,38.0,30.5,13.7,0002.1,0039.06,0022.18,0020.17
2021-09-09 20:19:00,,0829.6,5.00,0.00,28.9,26.6,00.0,38.0,30.6,13.4,0001.9,0039.78,0022.14,0020.15
2021-09-09 20:20:00,,0829.5,5.00,0.00,28.9,27.0,00.0,37.9,30.7,13.6,0001.8,0039.75,0022.11,0020.10
2021-09-09 20:21:00,,0829.6,4.99,0.00,29.0,27.3,00.0,38.0,30.8,13.8,0002.4,0039.10,0022.09,0020.06
2021-09-09 20:22:00,,0829.6,5.01,0.00,29.0,27.7,00.0,38.0,30.9,13.1,0003.0,0039.59,0022.09,0020.00
2021-09-09 20:23:00,,0829.5,4.99,0.00,29.1,27.8,00.0,38.0,31.0,13.1,0003.3,0040.93,0022.10,0020.00
2021-09-09 20:24:00,,0829.5,5.02,0.00,29.0,26.5,00.0,38.0,30.5,13.5,0003.0,0040.73,0022.11,0020.01
2021-09-09 20:25:00,,0829.5,5.00,0.00,28.9,25.8,00.0,38.0,30.3,13.3,0002.6,0040.69,0022.12,0020.02
2021-09-09 20:26:00,,0829.5,4.99,0.00,28.9,26.2,00.0,38.0,30.4,13.3,0001.9,0040.72,0022.11,0020.03
2021-09-09 20:27:00,,0829.5,5.01,0.00,28.9,26.6,00.0,37.9,30.5,13.4,0002.0,0040.38,0022.12,0020.03
2021-09-09 20:28:00,,0829.5,5.00,0.00,28.9,27.0,00.0,37.9,30.6,13.3,0002.1,0039.51,0022.08,0020.04
2021-09-09 20:29:00,,0829.5,4.99,0.00,28.9,27.3,00.0,37.9,30.8,13.0,0002.4,0040.49,0022.00,0020.01
2021-09-09 20:30:00,,0829.4,5.00,0.00,29.0,27.7,00.0,38.0,30.9,13.0,0002.6,0039.85,0022.05,0020.04
2021-09-09 20:31:00,,0829.5,5.01,0.00,29.1,27.8,00.0,38.0,30.9,13.1,0003.2,0039.87,0022.08,0020.06
2021-09-09 20:32:00,,0829.5,4.99,0.00,29.0,26.5,00.0,38.0,30.6,13.0,0002.5,0040.29,0022.07,0020.07
2021-09-09 20:33:00,,0829.5,5.00,0.00,28.9,25.8,00.0,37.9,30.3,13.0,0001.5,0041.71,0022.00,0020.09
2021-09-09 20:34:00,,0829.5,5.00,0.00,28.9,26.2,00.0,37.9,30.4,13.0,0000.6,0040.09,0021.95,0020.12
2021-09-09 20:35:00,,0829.5,4.99,0.00,28.9,26.6,00.0,37.9,30.5,13.3,0000.9,0039.15,0021.92,0020.14
2021-09-09 20:36:00,,0829.5,5.01,0.00,28.9,27.0,00.0,37.9,30.6,13.0,0001.4,0038.79,0021.86,0020.10
2021-09-09 20:37:00,,0829.5,4.99,0.00,28.9,27.3,00.0,37.9,30.8,13.1,0002.1,0039.19,0021.79,0020.04
2021-09-09 20:38:00,,0829.5,5.00,0.00,29.0,27.7,00.0,37.9,30.9,13.0,0001.8,0039.67,0021.72,0020.01
2021-09-09 20:39:00,,0829.4,5.00,0.00,29.1,27.7,00.0,38.0,30.9,13.0,0001.9,0040.34,0021.70,0020.01
2021-09-09 20:40:00,,0829.5,5.00,0.00,29.0,26.4,00.0,37.9,30.6,12.6,0001.9,0040.45,0021.73,0020.03
2021-09-09 20:41:00,,0829.4,5.01,0.00,28.9,25.7,00.0,37.9,30.3,12.7,0001.5,0040.67,0021.66,0019.99
2021-09-09 20:42:00,,0829.3,4.99,0.00,28.9,26.1,00.0,37.9,30.4,12.8,0000.5,0039.99,0021.61,0019.97
2021-09-09 20:43:00,,0829.3,5.00,0.00,28.8,26.6,00.0,37.9,30.5,12.6,0000.5,0039.48,0021.60,0019.95
2021-09-09 20:44:00,,0829.3,4.99,0.00,28.9,27.0,00.0,37.9,30.6,12.5,0001.3,0038.34,0021.62,0019.94
2021-09-09 20:45:00,,0829.3,5.00,0.00,28.9,27.4,00.0,37.9,30.8,12.6,0001.9,0039.22,0021.54,0019.90
2021-09-09 20:46:00,,0829.4,5.00,0.00,29.0,27.7,00.0,37.9,30.9,12.2,0001.7,0039.39,0021.52,0019.84
2021-09-09 20:47:00,,0829.4,5.00,0.00,29.1,28.0,00.0,38.0,31.0,12.2,0001.4,0039.16,0021.53,0019.84
2021-09-09 20:48:00,,0829.3,5.01,0.00,29.1,27.3,00.0,38.0,30.8,12.1,0000.9,0039.14,0021.56,0019.85
2021-09-09 20:49:00,,0829.4,5.01,0.00,28.9,25.9,00.0,37.9,30.3,12.3,0001.0,0039.37,0021.58,0019.85
2021-09-09 20:50:00,,0829.3,4.99,0.00,28.8,25.9,00.0,37.9,30.3,12.2,0001.0,0038.53,0021.55,0019.83
2021-09-09 20:51:00,,0829.3,4.99,0.00,28.8,26.4,00.0,37.9,30.4,12.1,0000.9,0037.16,0021.54,0019.83
2021-09-09 20:52:00,,0829.2,5.01,0.00,28.8,26.8,00.0,37.9,30.6,12.1,0001.7,0037.00,0021.54,0019.83
2021-09-09 20:53:00,,0829.3,5.00,0.00,28.9,27.1,00.0,37.9,30.7,12.2,0001.8,0037.16,0021.48,0019.79
2021-09-09 20:54:00,,0829.3,5.01,0.00,29.0,27.5,00.0,37.9,30.8,12.6,0001.7,0036.98,0021.45,0019.76
2021-09-09 20:55:00,,0829.3,4.99,0.00,29.0,27.8,00.0,37.9,30.9,12.3,0001.6,0035.77,0021.40,0019.76
2021-09-09 20:56:00,,0829.4,5.01,0.00,29.1,27.3,00.0,38.0,30.8,12.0,0001.4,0034.75,0021.37,0019.73
2021-09-09 20:57:00,,0829.3,4.99,0.00,28.9,25.9,00.0,37.9,30.4,11.8,0001.6,0034.29,0021.33,0019.72
2021-09-09 20:58:00,,0829.3,5.00,0.00,28.9,25.9,00.0,37.9,30.3,11.8,0001.8,0035.94,0021.27,0019.70
2021-09-09 20:59:00,,0829.3,5.00,0.00,28.8,26.3,00.0,37.9,30.5,11.7,0002.4,0035.87,0021.26,0019.68
